Location: Big Meadows
(38.5260°N, 78.4400°W)
Time: 17:42:54
(UTC-04:00)

Daily predictions for brighter satellites

Satellite Brightness Start Highest point End
(mag) Time Altitude Azimuth Time Altitude Azimuth Time Altitude Azimuth
H-2A R/B 3.5 20:53:26 10° ESE 20:56:42 22° ENE 20:59:55 10° NNE
Cosmos 2184 Rocket 4.0 20:50:56 10° S 20:57:05 82° E 21:03:18 10° N
Cosmos 1782 3.0 20:56:18 10° N 21:00:18 57° E 21:04:16 10° SSE
Cosmos 1174 3.7 20:58:38 10° NNW 21:01:41 41° ENE 21:04:30 10° SE
Cosmos 1408 3.8 20:59:11 10° SE 21:02:10 24° E 21:05:09 10° NE
Cosmos 676 Rocket 4.4 20:57:17 10° N 21:02:21 48° ENE 21:07:23 10° SE
Cosmos 2056 Rocket 4.3 21:01:28 10° SSW 21:06:31 55° WNW 21:11:33 10° N
Atlas Centaur 2 2.8 21:07:15 10° WSW 21:09:54 18° SSW 21:12:26 10° SE
COS B Rocket 4.1 21:08:21 10° NNE 21:11:44 28° E 21:14:38 11° SE
Meteor 2-6 Rocket 4.3 21:06:46 10° N 21:12:43 79° E 21:18:29 10° SSE
CZ-4 DEB 2.7 21:10:33 10° SSE 21:13:42 78° ENE 21:16:53 10° N
Meteor 2-10 Rocket 4.4 21:09:38 10° NNW 21:15:19 59° W 21:20:47 10° S
Cosmos 1844 Rocket 3.3 21:12:40 10° SSW 21:18:15 63° WNW 21:23:51 10° NNE
Cosmos 1825 2.6 21:15:25 10° SSE 21:19:01 42° E 21:22:39 10° NNE
Cosmos 1939 Rocket 3.2 21:15:56 10° SE 21:19:34 45° ENE 21:23:20 10° N
COSMOS 2406 4.2 21:14:32 10° NW 21:20:01 47° WSW 21:25:26 10° S
Cosmos 2278 Rocket 2.2 21:14:48 10° S 21:20:23 66° ESE 21:26:02 10° NNE
GPS 2-05 Rocket1 3.2 21:17:29 10° WSW 21:21:08 53° S 21:24:07 14° ESE
Cosmos 1674 Rocket 3.8 21:19:36 10° NNW 21:24:04 73° W 21:28:27 10° S
SL-27 R/B 3.9 21:21:00 10° NW 21:24:23 38° WSW 21:27:41 10° S
Cosmos 1844 4.1 21:20:48 10° SSW 21:26:33 73° WNW 21:32:22 10° NNE
ALOS 3.7 21:22:53 10° SSW 21:27:12 37° W 21:31:33 10° NNW
Okean 2 Rocket 3.5 21:27:41 10° SSE 21:31:49 40° E 21:35:57 10° NNE
SJ-11-01 4.4 21:29:23 10° SSE 21:34:08 84° WSW 21:38:54 10° NNW
Envisat 3.0 21:31:59 12° SSE 21:36:37 66° ENE 21:41:40 10° N
USA 186 4.2 21:34:53 10° SSW 21:37:25 22° W 21:40:03 10° NW
SEDSat Delta rocket 4.1 21:34:01 10° SW 21:37:37 24° SSE 21:39:01 20° SE
PSLV R/B 4.4 21:38:40 22° E 21:39:23 24° ENE 21:41:52 10° NNE
Cosmos 1782 Rocket 3.6 21:35:12 10° S 21:39:36 62° E 21:44:02 10° NNE
Cosmos 2082 Rocket 3.2 21:36:37 10° N 21:41:40 31° ENE 21:44:56 18° ESE
CZ-4 SHROUD 4.4 21:41:47 23° E 21:42:35 26° ENE 21:45:15 10° NNE
Intercosmos 25 3.6 21:43:01 23° SE 21:44:33 35° E 21:47:29 10° NNE
Nadezhda 3 Rocket 4.0 21:38:42 10° N 21:45:06 89° E 21:51:29 10° S
OAO 3 Rocket 3.7 21:40:27 10° SW 21:45:06 42° SSE 21:48:02 20° ESE
ERS-1 Rocket 3.4 21:43:31 10° S 21:48:30 63° W 21:53:30 10° NNW
Cosmos 1420 Rocket 3.9 21:43:38 10° SSW 21:48:51 77° ESE 21:54:05 10° NNE
APEX 3.4 21:45:43 10° SSW 21:49:29 70° ESE 21:54:27 10° NNE
COSMOS 2487 2.6 21:48:58 10° NNW 21:52:35 75° WSW 21:54:41 23° S
DNEPR-1 R/B 3.9 21:47:52 10° NNW 21:53:08 65° NE 21:55:33 27° SE
Cosmos 1975 Rocket 2.9 21:51:29 10° N 21:55:49 76° E 21:58:29 23° SSE
Cosmos 1140 Rocket 3.4 21:51:45 10° NNW 21:56:55 79° ENE 22:00:07 24° SSE
Cosmos 2297 3.7 21:52:14 10° S 21:57:52 67° ESE 22:03:33 10° NNE
Terra 3.6 22:01:13 15° E 22:02:23 16° ENE 22:05:12 10° NNE
EO 1 Delta rocket 4.4 21:57:26 10° N 22:03:16 71° WNW 22:08:04 10° SSW
Cosmos 1378 Rocket 4.3 22:00:55 10° NNW 22:05:06 51° W 22:08:45 13° SSW
ISS -0.6 22:04:02 10° W 22:06:37 21° NNW 22:09:11 10° NNE
CZ-4B R/B 3.6 22:02:41 10° NNE 22:07:25 46° E 22:09:18 30° SSE
MetOp-B 4.1 22:04:32 25° SSE 22:07:45 76° ENE 22:13:07 10° N
Cosmos 1606 4.4 22:04:50 10° NNW 22:08:21 32° W 22:11:50 10° SSW
Cosmos 1536 Rocket 4.5 22:04:39 10° NNE 22:08:41 32° ENE 22:09:31 30° E
H-2A R/B 3.3 22:11:12 23° E 22:12:48 26° ENE 22:17:09 10° NNE
NOSS 8 (F) 4.4 22:11:48 39° S 22:12:50 59° ESE 22:16:23 10° NE
Cosmos 2341 Rocket 4.4 22:06:41 10° SSW 22:12:55 63° W 22:19:08 10° N
Cosmos 1238 Rocket 3.8 22:10:57 10° NNW 22:14:15 42° W 22:17:07 16° SSW
SPOT 5 3.3 22:14:01 22° S 22:17:30 73° WSW 22:22:53 10° NNW
SL-8 Rocket 3.9 22:13:59 13° S 22:19:35 86° E 22:25:51 10° N
Abrixas 2.9 22:22:27 10° WSW 22:24:56 55° WSW 22:24:56 55° WSW
USA 245 2.9 22:25:48 67° SE 22:26:12 78° ENE 22:30:22 10° N
Cosmos 2369 Rocket 4.3 22:29:38 11° ENE 22:29:38 11° ENE 22:30:12 10° ENE
SPOT 1/Viking Rocket 3.5 22:26:12 38° SSE 22:28:16 80° ENE 22:33:30 10° N
ARGOS 3.1 22:27:48 39° SSE 22:29:48 73° ENE 22:35:08 10° N
Lacrosse 5 2.9 22:31:52 28° E 22:31:52 28° E 22:34:41 10° ENE
Cosmos 1242 Rocket 3.5 22:26:37 10° NNW 22:30:09 44° W 22:31:23 31° SW
Elektron 3 4.5 22:28:08 10° NW 22:31:10 62° SW 22:31:54 50° S
Timation 2 Rocket 4.1 22:25:17 10° NNW 22:31:11 64° WSW 22:34:07 30° S
H-2A R/B 3.6 22:29:41 15° SSW 22:32:32 30° W 22:36:15 10° NW
YAOGAN 6 3.0 22:33:24 46° SW 22:33:58 53° W 22:37:26 10° NNW
Cosmos 2151 Rocket 3.6 22:36:41 41° SSW 22:38:15 82° W 22:42:48 10° N
CZ-4C R/B 4.0 22:38:45 42° ENE 22:38:45 42° ENE 22:42:31 10° N
USA 229 DEB 3.7 22:40:26 10° NNW 22:47:36 87° ENE 22:50:15 43° SE
USA 229 3.7 22:40:32 10° NNW 22:47:42 87° ENE 22:50:21 43° SE
Cosmos 1300 Rocket 4.0 22:49:13 47° ENE 22:49:13 47° ENE 22:52:59 10° NNE
Cosmos 864 Rocket 4.4 22:45:50 29° SSW 22:49:10 82° W 22:55:22 10° N
Meteor 1-20 Rocket 4.1 22:50:14 50° S 22:51:45 78° E 22:57:17 10° NNE
ASTEX 1 4.2 22:47:31 10° NNE 22:51:33 36° ENE 22:51:33 36° ENE
Timation 1 Rocket 4.3 22:48:54 20° SSW 22:53:11 87° WNW 22:59:14 10° NNE
Okean 1 Rocket 3.6 22:56:16 46° ENE 22:56:16 46° ENE 22:59:54 10° NNE
Cosmos 1833 Rocket 2.7 22:54:29 10° NNW 23:00:07 75° WSW 23:01:16 56° S
Cosmos 2366 rocket 4.4 22:57:17 23° SSW 23:01:15 62° W 23:07:33 10° N
Cosmos 1331 Rocket 4.0 23:05:38 53° SW 23:06:51 79° WNW 23:12:02 10° NNE
CZ-4 R/B 4.4 23:05:29 10° N 23:10:01 52° WNW 23:11:24 38° WSW
Okean 1-7 Rocket 4.0 23:09:26 10° N 23:13:10 55° NNE 23:13:10 55° NNE
Okean 1 3.9 23:11:19 10° N 23:14:37 57° NNW 23:14:37 57° NNW
Cosmos 1110 Rocket 4.5 23:13:24 33° SW 23:15:32 57° WNW 23:20:40 10° N
DMSP B5D2-2 3.9 23:15:06 10° NNE 23:20:21 88° W 23:20:37 81° SSW
Landsat 7 4.2 23:23:53 53° WSW 23:23:57 53° W 23:28:37 10° NNW
Cosmos 2082 Rocket 3.2 23:20:38 10° NW 23:25:43 35° WSW 23:26:48 32° SW
Cosmos 1812 4.1 23:24:26 10° NNW 23:27:16 36° WNW 23:27:16 36° WNW
CARTOSAT-1 4.3 23:32:46 49° WNW 23:32:46 49° WNW 23:36:16 10° NNW
NOSS 3-1 (C) 4.1 23:27:25 10° NNW 23:35:04 73° NE 23:37:00 55° ESE
Cosmos 1000 Rocket 4.3 23:30:59 10° N 23:37:16 88° E 23:37:44 78° SSE
Meteor 2-4 Rocket 4.2 23:32:25 10° N 23:37:12 48° ENE 23:37:12 48° ENE
Terra 2.4 23:40:06 51° WNW 23:40:06 51° WNW 23:44:19 10° NNW
Cosmos 2239 Rocket 4.3 23:40:40 79° SSE 23:41:05 87° E 23:47:26 10° N
BREEZE-M TANK 3.5 23:34:49 10° WNW 23:42:02 46° N 23:42:07 46° N
USA 234 3.1 23:35:42 10° NE 23:42:16 84° SE 23:43:56 54° SW
Cosmos 1486 Rocket 4.3 23:39:49 10° NNW 23:44:40 64° WNW 23:44:40 64° WNW
Cosmos 1354 Rocket 4.4 23:40:29 10° NNW 23:45:03 57° NNE 23:45:03 57° NNE
Meteor 1-13 Rocket 4.4 23:43:20 10° NNW 23:49:14 67° W 23:49:25 67° WSW
H-2A R/B 3.1 23:51:51 37° WSW 23:52:00 38° W 23:56:55 10° NNW
Lacrosse 5 rocket 3.4 23:57:31 23° NNW 23:57:31 23° NNW 23:59:56 10° NNE
